ONEWEB-0691, 61599

Orbit data source: Space-Track

ONEWEB-0691, 61599 is a payload satellite owned by Eut. One Web (UK) in LEO that was launched on Sun, 20 Oct 2024 UTC via an FALCON 9 launch vehicle from the Air Force Western Test Range (AFWTR). Payload-class satellites include a variety of spacecraft equipped with specific instruments for various scientific and technological missions. These include communications satellites like Starlink; space stations such as the ISS; scientific satellites like the Hubble; Earth observation satellites from companies like Planet Labs, Umbra, and HawkEye 360; GPS; miniature CubeSats for education and research; and military/defense satellites.

Loading next visibility...
Identifier
61599, 2024-188F
Orbit
LEO
Country
Flag of UKUK
Related business
Manufacturer
One Web
Mission
Operational spacecraft
Bus & Motor
ARROW, Unknown motor
Mass
148 kg wet, ~140 kg dry
Launch date (UTC)
2024-10-20 (1 year ago)
Launch vehicle
FALCON 9
Launch site
Air Force Western Test Range (AFWTR)
Object type
Payload
Rocket body
Debris
Shape & HBR
Unknown shape, 6.7 m
Radar Cross Section
Medium (>0.1 m² and <1 m²)

Expand to show TLE details & history
Last TLE update: 6 hours ago

TLE from 6 hours ago
0 ONEWEB-0691
1 61599U 24188F   25288.81730937 -.00000448  00000-0 -13001-2 0  9991
2 61599  87.8770  69.6403 0001433  84.8188 275.3103 13.11417697 52452
Epoch: 2025-10-15T19:36Z
TLE epoch observation values (Epoch: 2025-10-15T19:36:55.529Z)
Latitude
-0.00007°
Longitude
110.82298°
Altitude
1,220.468 km
Speed
7.244 km/s
True Right ascension
04h 38m 33s
True Declination
0° 00' 00"
Sunlit
Object was in full shadow at epoch
Visualization orbit readout
Latitude
Unknown
Longitude
Unknown
Altitude
Unknown
Speed
Unknown
Apparent Right ascension
Unknown
Apparent Declination
Unknown
Sunlit
N/A
Visualization observer readout
Local Sidereal Time
20:19:34
Azimuth
Unknown
Elevation
Unknown
Doppler factor
Unknown
Orbital elements
Apogee altitude
1,215.886 km
Perigee altitude
1,213.71 km
Semi-major axis
7,592.935 km
Eccentricity
0.00014
Inclination
87.877°
RAAN
69.6403°
Arg. of periapsis
84.8188°
True anomaly
275.29395°
Mean anomaly
275.3103°
Eccentric anomaly
275.30212°
Mean motion
3.28041 °/min
Orbital period
109.74 mins
BSTAR
-0.0013001
Loading maneuver chart data...
Computing Atmospheric mass density...
Loading historical data...
Loading historical data...
Loading historical data...
Loading historical data...
Loading historical data...
Loading historical data...
Loading historical data...

Documentation

Showing up to 5 results
|